Regional Weather Roundup
Issued by NWS

Home | Current Version | Previous Version | Graphics & Text | Print | Product List | Glossary Off
Versions: 1 2 3 4 5 6 7 8 9 10 11 12 13 14 15 16 17 18 19 20 21 22 23 24 25 26 27 28 29 30 31 32 33 34 35 36 37 38 39 40 41 42 43 44 45 46 47 48 49 50

000
ASUS43 KOAX 292210
RWRNE
WEATHER ROUNDUP FOR NEBRASKA
NATIONAL WEATHER SERVICE OMAHA NE
500 PM CDT FRI MAY 29 2015

NOTES: SATELLITE DATA IS BEING USED TO AUGMENT CLOUD COVER ABOVE
       12000 FEET.
       "FAIR" INDICATES FEW OR NO CLOUDS BELOW 12,000 FEET WITH NO
       SIGNIFICANT WEATHER AND/OR OBSTRUCTIONS TO VISIBILITY.

  * THESE STATIONS DO NOT REPORT WEATHER SUCH AS RAIN...SNOW OR FOG.

NEZ001>004-019>022-054>056-292300-
NEBRASKA PANHANDLE

CITY           SKY/WX    TMP DP  RH WIND       PRES   REMARKS
SCOTTSBLUFF    LGT RAIN  51  48  89 N17       30.26R
ALLIANCE       LGT RAIN  47  45  93 N17       30.25S FOG
CHADRON        LGT RAIN  48  45  89 NE14      30.29R
KIMBALL          N/A    N/A N/A N/A MISG        N/A
SIDNEY         CLOUDY    52  47  83 N17       30.23R
$$

NEZ057>060-069>072-079>082-292300-
SOUTHWEST NEBRASKA

CITY           SKY/WX    TMP DP  RH WIND       PRES   REMARKS
NORTH PLATTE   LGT RAIN  55  51  86 NW15G23   30.17R
IMPERIAL       CLOUDY    60  52  74 N22G28    30.14R
LEXINGTON      LGT RAIN  61  56  84 N23G30    30.06R
MCCOOK         LGT RAIN  63  55  75 N36G47    30.04R
OGALLALA       CLOUDY    53  50  91 N16G25    30.15R
$$

NEZ005>010-023>029-035>040-094-292300-
NORTH CENTRAL NEBRASKA

CITY           SKY/WX    TMP DP  RH WIND       PRES   REMARKS
VALENTINE      LGT RAIN  49  47  93 N17G25    30.21R
AINSWORTH      LGT RAIN  50  49  96 N20G28    30.17R
BROKEN BOW     CLOUDY    61  51  70 N28G37    30.09R
O`NEILL        LGT RAIN  54  53  97 N23G29    30.09R
ORD            CLOUDY    58  50  75 N21G32    30.06R
THEDFORD       HVY RAIN  51  49  95 N14G24    30.20R
$$

NEZ041-046>049-061>064-073>077-083>087-292300-
SOUTH CENTRAL NEBRASKA

CITY           SKY/WX    TMP DP  RH WIND       PRES   REMARKS
GRAND ISLAND   MOSUNNY   70  56  61 N23       29.99R
AURORA         MOSUNNY   74  58  57 NW26      29.97R
HASTINGS       PTSUNNY   75  59  57 N22       29.97S
HEBRON         PTSUNNY   79  51  36 NW5       29.92F
HOLDREGE       PTSUNNY   70  55  58 N18G26    30.00R
KEARNEY *      CLOUDY    70  54  56 N25G33    30.00R
YORK           CLOUDY    75  59  57 NW20      29.93S
$$

NEZ011>018-030>034-042>045-292300-
NORTHEAST NEBRASKA

CITY           SKY/WX    TMP DP  RH WIND       PRES   REMARKS
NORFOLK        CLOUDY    63  58  83 N23G30    29.97R
ALBION         CLOUDY    59  52  77 N17G26    30.01R
BLAIR          CLOUDY    79  59  50 SW12      29.89S
COLUMBUS *     PTSUNNY   73  57  56 NW24G30   29.94R
FREMONT        CLOUDY    78  59  53 SW6       29.89F
TEKAMAH        CLOUDY    80  61  52 SW8       29.87F
WAYNE          CLOUDY    65  61  87 N18G24    29.95R
$$

NEZ050>053-065>068-078-088>093-292300-
SOUTHEAST NEBRASKA

CITY           SKY/WX    TMP DP  RH WIND       PRES   REMARKS
LINCOLN        PTSUNNY   79  59  50 W5        29.91F
OMAHA EPPLEY   CLOUDY    78  60  53 S12       29.88F
BEATRICE       PTSUNNY   77  59  54 SW6       29.91F
FALLS CITY     CLOUDY    74  65  73 SW13      29.93F
NEBRASKA CITY  PTSUNNY   74  58  55 SW13      29.92F
PLATTSMOUTH    CLOUDY    76  60  58 SW10      29.91F
$$

NEZ044-045-051>053-067-292300-
OMAHA AREA

CITY           SKY/WX    TMP DP  RH WIND       PRES   REMARKS
OMAHA EPPLEY   CLOUDY    78  60  53 S12       29.88F
BLAIR          CLOUDY    79  59  50 SW12      29.89S
FREMONT        CLOUDY    78  59  53 SW6       29.89F
MILLARD        CLOUDY    78  62  57 SW6       29.89F
OFFUTT AFB     CLOUDY    78  62  57 S10       29.89F
PLATTSMOUTH    CLOUDY    76  60  58 SW10      29.91F
WAHOO          MOCLDY    78  59  51 SW7       29.89F
$$


USA.gov is the U.S. government's official web portal to all federal, state and local government web resources and services.